Location: Devore Heights
(34.2372°N, 117.4156°W)
Time: 18:19:00
(UTC+00:00)

S-56A Canister/Altair - Pass Details

Date: 15 September 2024
Orbit: 636 x 2487 km, 38.9° (Epoch: 14 October)

Event Time Altitude Azimuth Distance (km) Brightness Sun altitude
Rises 03:50:04 0° 271° (W) 3,397 12.0 -23.6°
Reaches altitude 10° 03:52:14 10° 275° (W) 2,622 11.2 -24.1°
Maximum altitude 03:58:30 64° 356° (N) 1,317 8.7 -25.3°
Enters shadow 04:02:43 33° 66° (ENE) 2,200 9.4 -26.1°
Drops below altitude 10° 04:08:07 10° 77° (ENE) 3,936 - -27.1°
Sets 04:12:05 0° 81° (E) 5,225 - -27.8°
